This is the latest recevied weather packets stored in our database for station/object K5IDL. If no packets are shown the sender has not sent any weather packets the latest 10 day(s).
| Time | Temp. | Humidity | Pressure | Rain* | Wind** | Luminosity | Snow |
|---|---|---|---|---|---|---|---|
| 1778010305 | 31.11° C | 60% | 1005.8 hPa | 0 mm | - | 225 W/m² | - |
| 1778010004 | 31.11° C | 58% | 1005.8 hPa | 0 mm | - | 270 W/m² | - |
| 1778009702 | 31.11° C | 60% | 1005.6 hPa | 0 mm | - | 451 W/m² | - |
| 1778009399 | 31.11° C | 60% | 1005.6 hPa | 0 mm | - | 230 W/m² | - |
| 1778009098 | 30.56° C | 61% | 1005.6 hPa | 0 mm | - | 355 W/m² | - |
| 1778008795 | 30.56° C | 62% | 1005.8 hPa | 0 mm | - | 633 W/m² | - |
| 1778008494 | 30.56° C | 60% | 1005.6 hPa | 0 mm | - | 696 W/m² | - |
| 1778008190 | 30° C | 62% | 1005.6 hPa | 0 mm | - | 626 W/m² | - |
| 1778007885 | 29.44° C | 64% | 1005.8 hPa | 0 mm | - | 472 W/m² | - |
| 1778007581 | 30° C | 64% | 1005.8 hPa | 0 mm | - | 290 W/m² | - |
| 1778007279 | 30° C | 64% | 1005.6 hPa | 0 mm | - | 297 W/m² | - |
| 1778006975 | 29.44° C | 64% | 1005.8 hPa | 0 mm | - | 254 W/m² | - |
| 1778006672 | 29.44° C | 64% | 1005.8 hPa | 0 mm | - | 247 W/m² | - |
| 1778006368 | 29.44° C | 65% | 1006.1 hPa | 0 mm | - | 224 W/m² | - |
| 1778006065 | 29.44° C | 66% | 1006 hPa | 0 mm | - | 250 W/m² | - |
| 1778005762 | 28.89° C | 66% | 1005.9 hPa | 0 mm | - | 222 W/m² | - |
| 1778005459 | 28.33° C | 67% | 1006 hPa | 0 mm | - | 211 W/m² | - |
| 1778005155 | 28.33° C | 67% | 1005.9 hPa | 0 mm | - | 175 W/m² | - |
| 1778004853 | 28.89° C | 67% | 1006 hPa | 0 mm | - | 170 W/m² | - |
| 1778004549 | 28.89° C | 66% | 1006.1 hPa | 0 mm | - | 238 W/m² | - |
| 1778004246 | 28.89° C | 66% | 1006 hPa | 0 mm | - | 334 W/m² | - |
| 1778003942 | 28.89° C | 65% | 1005.9 hPa | 0 mm | - | 386 W/m² | - |
| 1778003639 | 28.89° C | 66% | 1005.9 hPa | 0 mm | - | 420 W/m² | - |
| 1778003335 | 28.33° C | 67% | 1005.7 hPa | 0 mm | - | 393 W/m² | - |
| 1778003033 | 28.33° C | 68% | 1006.1 hPa | 0 mm | - | 393 W/m² | - |
* Rain latest hour (hover to see other rain measurements)
** Current wind speed in m/s (hover to see current wind gust speed)